Location: Ch�risy
(50.2331°N, 2.9131°E)
Time: 19:59:05
(UTC+00:00)

Meteor 2-8 Rocket - Pass Details

Date: 17 January 2021
Orbit: 937 x 957 km, 82.5° (Epoch: 27 February)

Event Time Altitude Azimuth Distance (km) Brightness Sun altitude
Rises 19:07:11 0° 350° (N) 3,613 7.6 -26.5°
Reaches altitude 10° 19:09:41 10° 351° (N) 2,666 6.9 -26.9°
Maximum altitude 19:15:47 82° 79° (ENE) 957 4.2 -27.9°
Enters shadow 19:16:22 73° 144° (SE) 986 4.3 -28.0°
